Regional Weather Roundup
Issued by NWS Jackson, KY

Home | Current Version | Previous Version | Text Only | Print | Product List | Glossary Off
Versions: 1 2 3 4 5 6 7 8 9 10 11 12 13 14 15 16 17 18 19 20 21 22 23 24 25 26 27 28 29 30 31 32 33 34 35 36 37 38 39 40 41 42 43 44 45 46 47 48 49 50

378
ASUS43 KJKL 241010
RWRJKL

EAST KENTUCKY HOURLY WEATHER ROUNDUP
NATIONAL WEATHER SERVICE JACKSON KY
600 AM EDT MON JUL 24 2017

NOTE: "FAIR" INDICATES FEW OR NO CLOUDS BELOW 12,000 FEET WITH
NO SIGNIFICANT WEATHER AND/OR OBSTRUCTIONS TO VISIBILITY.

* THESE REPORTS ARE NOT UNDER NWS QUALITY CONTROL AND MAY NOT
  REPORT WEATHER SUCH AS PRECIPITATION AND FOG.

KYZ079-080-083-085-087-088-110-112-115-119-120-241100
...EASTERN KENTUCKY...

CITY           SKY/WX    TMP DP  RH WIND       PRES   REMARKS
JACKSON        PTCLDY    70  68  93 CALM      29.94R FOG
LONDON         CLOUDY    68  66  93 S3        29.95R
SOMERSET*      PTCLDY    68  68 100 CALM      29.95R
MONTICELLO*    CLOUDY    67  67 100 W9        29.96  FOG
WILLIAMSBURG*  CLOUDY    66  66 100 CALM      29.96R
MIDDLESBORO*   CLOUDY    69  69 100 CALM      29.96S
PIKE CO APT*   MOCLDY    70  70 100 CALM      29.94S
BIG SANDY APT* PTSUNNY   72  72  98 CALM      29.93R
MOREHEAD APT*  MOSUNNY   68  66  94 S3        29.92R FOG
$$

KYZ035-036-041-042-044-050-067-078-099-241100
...CENTRAL KENTUCKY...

CITY           SKY/WX    TMP DP  RH WIND       PRES   REMARKS
MT STERLING*   CLEAR     68  68 100 W5        29.92S
FLEMING/MASON* CLEAR     68  67  98 W3        29.90S
DANVILLE*      PTCLDY    68  68 100 CALM      29.95R
LEXINGTON      PTCLDY    71  68  90 W5        29.92R
FRANKFORT      CLEAR     72  68  87 SW6       29.89R
LOUISVILLE     PTCLDY    75  71  87 SW3       29.89R
LEBANON*         N/A     72  72 100 CALM      29.93R FOG
GLASGOW*       CLOUDY   N/A N/A N/A CALM      29.93R FOG
BOWLING GREEN  CLEAR     73  72  96 CALM      29.92R
$$

KYZ091>093-OHZ055-061-077-WVZ005-015-034-035-042-241100
...SOUTHERN OHIO/WEST VIRGINIA...

CITY           SKY/WX    TMP DP  RH WIND       PRES   REMARKS
COVINGTON      MOCLDY    70  70 100 SW5       29.88R
COLUMBUS       CLEAR     67  67 100 CALM      29.84R
DAYTON         PTCLDY    69  68  96 CALM      29.87R
WILMINGTON     CLEAR     67  67 100 S5        29.86R FOG
HUNTINGTON     CLEAR     70  68  93 SW5       29.87R
CHARLESTON     PTCLDY    72  68  87 W8        29.88R
PINEVILLE*     CLOUDY    69  68  96 MISG      29.99R
BECKLEY        CLOUDY    68  66  93 W7        29.96R
BLUEFIELD      CLOUDY    66  65  96 W10       30.00R
LOGAN CO APT*  CLOUDY    72  70  94 W6G12     29.93R
$$

VAZ002-007-008-TNZ017-027-036-066-071-241100
...SOUTHWEST VIRGINIA/EAST TENNESSEE...

CITY           SKY/WX    TMP DP  RH WIND       PRES   REMARKS
WISE*          FOG       68  68 100 W5        30.02R VSB 3/4
JONESVILLE*    CLOUDY    68  68 100 CALM      29.99R
ABINGDON*      CLOUDY    70  70  99 W8        29.99R
BRISTOL        CLOUDY    68  67  96 CALM      29.97R
MORRISTOWN*    MOSUNNY   68  68 100 CALM      29.95S
SEVIERVILLE*   MOSUNNY   70  66  88 CALM      29.95R
KNOXVILLE      CLOUDY    72  70  93 NW3       29.94R
LAFOLLETTE*    MOSUNNY   68  68 100 CALM      29.98F FOG
OAK RIDGE      MOCLDY    70  68  93 CALM      29.95S
CROSSVILLE     CLOUDY    67  65  93 NE5       29.99R
NASHVILLE      MOCLDY    71  68  90 CALM      29.93R
$$

...KEY TO REMARKS...
VSB - VISIBILITY IN MILES
WCI - WIND CHILL INDEX
HX  - HEAT INDEX

$$




USA.gov is the U.S. government's official web portal to all federal, state and local government web resources and services.